| time (UTC) | temp F | wind direction | speed MPH | gust MPH | rain 1hr in | rain 24hr in | rain mn in | humidity % | barometer mb |
| 20260505222650 | 66 | 0.0 | 0.0 | 0.00 | 0.00 | 0.00 | 99 | 1023.2 | |
| 20260505222148 | 66 | 0.0 | 0.0 | 0.00 | 0.00 | 0.00 | 99 | 1023.2 | |
| 20260505221646 | 66 | 0.0 | 0.0 | 0.00 | 0.00 | 0.00 | 99 | 1023.1 | |
| 20260505221145 | 66 | 0.0 | 0.0 | 0.00 | 0.00 | 0.00 | 99 | 1023.1 | |
| 20260505220643 | 67 | 0.0 | 0.0 | 0.00 | 0.00 | 0.00 | 99 | 1023.1 | |
| 20260505220141 | 67 | 0.0 | 0.0 | 0.00 | 0.00 | 0.00 | 99 | 1023.1 | |
| 20260505215640 | 67 | 0.0 | 0.0 | 0.00 | 0.00 | 0.00 | 99 | 1023.1 | |
| 20260505215138 | 68 | 0.0 | 0.0 | 0.00 | 0.00 | 0.00 | 99 | 1023.1 | |
| 20260505214637 | 68 | 0.0 | 0.0 | 0.00 | 0.00 | 0.00 | 99 | 1023.0 | |
| 20260505214135 | 68 | 0.0 | 0.0 | 0.00 | 0.00 | 0.00 | 99 | 1023.0 | |
| 20260505213633 | 68 | 0.0 | 0.0 | 0.00 | 0.00 | 0.00 | 98 | 1023.0 | |
| 20260505213131 | 69 | 0.0 | 0.0 | 0.00 | 0.00 | 0.00 | 96 | 1023.0 | |
| 20260505212629 | 69 | 0.0 | 0.0 | 0.00 | 0.00 | 0.00 | 94 | 1022.9 | |
| 20260505212128 | 69 | 0.0 | 0.0 | 0.00 | 0.00 | 0.00 | 91 | 1022.9 | |
| 20260505211626 | 69 | 0.0 | 0.0 | 0.00 | 0.00 | 0.00 | 89 | 1022.8 | |
| 20260505211124 | 70 | 0.0 | 0.0 | 0.00 | 0.00 | 0.00 | 87 | 1022.8 | |
| 20260505210622 | 70 | 0.0 | 0.0 | 0.00 | 0.00 | 0.00 | 84 | 1022.8 | |
| 20260505210120 | 71 | 0.0 | 0.0 | 0.00 | 0.00 | 0.00 | 80 | 1022.7 | |
| 20260505205618 | 72 | 0.0 | 0.0 | 0.00 | 0.00 | 0.00 | 77 | 1022.6 | |
| 20260505205116 | 72 | 0.0 | 0.0 | 0.00 | 0.00 | 0.00 | 74 | 1022.6 | |
| 20260505204614 | 73 | 0.0 | 0.0 | 0.00 | 0.00 | 0.00 | 70 | 1022.5 | |
| 20260505204113 | 74 | 0.0 | 0.0 | 0.00 | 0.00 | 0.00 | 67 | 1022.4 | |
| 20260505203611 | 74 | 0.0 | 0.0 | 0.00 | 0.00 | 0.00 | 66 | 1022.4 | |
| 20260505203110 | 75 | 0.0 | 0.0 | 0.00 | 0.00 | 0.00 | 64 | 1022.4 | |
| 20260505202608 | 75 | 0.0 | 0.0 | 0.00 | 0.00 | 0.00 | 62 | 1022.4 | |
| 20260505202106 | 76 | 0.0 | 0.0 | 0.00 | 0.00 | 0.00 | 61 | 1022.3 | |
| 20260505201604 | 77 | 0.0 | 0.0 | 0.00 | 0.00 | 0.00 | 60 | 1022.3 | |
| 20260505201102 | 77 | 0.0 | 0.0 | 0.00 | 0.00 | 0.00 | 59 | 1022.3 | |
| 20260505200600 | 78 | 0.0 | 0.0 | 0.00 | 0.00 | 0.00 | 57 | 1022.3 | |
| 20260505200058 | 78 | 0.0 | 0.0 | 0.00 | 0.00 | 0.00 | 57 | 1022.4 | |
| 20260505195556 | 78 | 0.0 | 0.0 | 0.00 | 0.00 | 0.00 | 56 | 1022.4 | |
| 20260505195055 | 80 | 0.0 | 0.0 | 0.00 | 0.00 | 0.00 | 52 | 1022.3 | |
| 20260505194553 | 80 | 0.0 | 0.0 | 0.00 | 0.00 | 0.00 | 52 | 1022.3 | |
| 20260505194051 | 79 | 0.0 | 0.0 | 0.00 | 0.00 | 0.00 | 54 | 1022.3 | |
| 20260505193549 | 78 | 0.0 | 0.0 | 0.00 | 0.00 | 0.00 | 54 | 1022.2 | |
| 20260505193047 | 78 | 0.0 | 0.0 | 0.00 | 0.00 | 0.00 | 54 | 1022.2 | |
| 20260505192545 | 78 | 0.0 | 0.0 | 0.00 | 0.00 | 0.00 | 53 | 1022.2 | |
| 20260505192044 | 79 | 0.0 | 0.0 | 0.00 | 0.00 | 0.00 | 52 | 1022.1 | |
| 20260505191542 | 80 | 0.0 | 0.0 | 0.00 | 0.00 | 0.00 | 51 | 1022.1 | |
| 20260505191041 | 82 | 0.0 | 0.0 | 0.00 | 0.00 | 0.00 | 48 | 1022.2 | |
| 20260505190539 | 84 | 0.0 | 0.0 | 0.00 | 0.00 | 0.00 | 45 | 1022.2 | |
| 20260505190037 | 85 | 0.0 | 0.0 | 0.00 | 0.00 | 0.00 | 44 | 1022.3 | |
| 20260505185536 | 85 | 0.0 | 0.0 | 0.00 | 0.00 | 0.00 | 44 | 1022.3 | |
| 20260505185034 | 85 | 0.0 | 0.0 | 0.00 | 0.00 | 0.00 | 44 | 1022.4 | |
| 20260505184532 | 85 | 0.0 | 0.0 | 0.00 | 0.00 | 0.00 | 42 | 1022.4 | |
| 20260505184031 | 86 | 0.0 | 0.0 | 0.00 | 0.00 | 0.00 | 42 | 1022.3 | |
| 20260505183528 | 86 | 0.0 | 0.0 | 0.00 | 0.00 | 0.00 | 42 | 1022.3 | |
| 20260505183027 | 86 | 0.0 | 0.0 | 0.00 | 0.00 | 0.00 | 42 | 1022.4 | |
| 20260505182525 | 83 | 0.0 | 0.0 | 0.00 | 0.00 | 0.00 | 44 | 1022.3 | |
| 20260505182023 | 83 | 0.0 | 0.0 | 0.00 | 0.00 | 0.00 | 45 | 1022.4 | |
| 20260505181521 | 84 | 0.0 | 0.0 | 0.00 | 0.00 | 0.00 | 44 | 1022.4 | |
| 20260505181020 | 85 | 0.0 | 0.0 | 0.00 | 0.00 | 0.00 | 44 | 1022.4 | |
| 20260505180518 | 87 | 0.0 | 0.0 | 0.00 | 0.00 | 0.00 | 40 | 1022.5 | |
| 20260505180016 | 85 | 0.0 | 0.0 | 0.00 | 0.00 | 0.00 | 42 | 1022.4 | |
| 20260505175515 | 84 | 0.0 | 0.0 | 0.00 | 0.00 | 0.00 | 45 | 1022.4 | |
| 20260505175013 | 80 | 0.0 | 0.0 | 0.00 | 0.00 | 0.00 | 51 | 1022.5 | |
| 20260505174511 | 80 | 0.0 | 0.0 | 0.00 | 0.00 | 0.00 | 50 | 1022.5 | |
| 20260505174009 | 80 | 0.0 | 0.0 | 0.00 | 0.00 | 0.00 | 49 | 1022.6 | |
| 20260505173508 | 81 | 0.0 | 0.0 | 0.00 | 0.00 | 0.00 | 48 | 1022.6 | |
| 20260505173006 | 81 | 0.0 | 0.0 | 0.00 | 0.00 | 0.00 | 48 | 1022.7 | |
| 20260505172505 | 81 | 0.0 | 0.0 | 0.00 | 0.00 | 0.00 | 46 | 1022.7 | |
| 20260505172003 | 84 | 0.0 | 0.0 | 0.00 | 0.00 | 0.00 | 43 | 1022.7 | |
| 20260505171501 | 83 | 0.0 | 0.0 | 0.00 | 0.00 | 0.00 | 46 | 1022.7 | |
| 20260505171000 | 82 | 0.0 | 0.0 | 0.00 | 0.00 | 0.00 | 47 | 1022.7 | |
| 20260505170458 | 82 | 0.0 | 0.0 | 0.00 | 0.00 | 0.00 | 46 | 1022.7 | |
| 20260505165956 | 85 | 0.0 | 0.0 | 0.00 | 0.00 | 0.00 | 44 | 1022.7 | |
| 20260505165454 | 82 | 0.0 | 0.0 | 0.00 | 0.00 | 0.00 | 48 | 1022.7 | |
| 20260505164952 | 84 | 0.0 | 0.0 | 0.00 | 0.00 | 0.00 | 46 | 1022.8 | |
| 20260505164451 | 80 | 0.0 | 0.0 | 0.00 | 0.00 | 0.00 | 50 | 1022.9 | |
| 20260505163949 | 80 | 0.0 | 0.0 | 0.00 | 0.00 | 0.00 | 50 | 1022.9 | |
| 20260505163448 | 80 | 0.0 | 0.0 | 0.00 | 0.00 | 0.00 | 51 | 1023.0 | |
| 20260505162946 | 84 | 0.0 | 0.0 | 0.00 | 0.00 | 0.00 | 47 | 1022.9 | |
| 20260505162445 | 85 | 0.0 | 0.0 | 0.00 | 0.00 | 0.00 | 45 | 1023.0 | |
| 20260505161943 | 84 | 0.0 | 0.0 | 0.00 | 0.00 | 0.00 | 45 | 1023.1 | |
| 20260505161441 | 86 | 0.0 | 0.0 | 0.00 | 0.00 | 0.00 | 45 | 1023.1 | |
| 20260505160940 | 85 | 0.0 | 0.0 | 0.00 | 0.00 | 0.00 | 44 | 1023.1 | |
| 20260505160439 | 85 | 0.0 | 0.0 | 0.00 | 0.00 | 0.00 | 46 | 1023.2 | |
| 20260505152926 | 82 | 0.0 | 0.0 | 0.00 | 0.00 | 0.00 | 48 | 1023.6 | |
| 20260505152424 | 84 | 0.0 | 0.0 | 0.00 | 0.00 | 0.00 | 49 | 1023.6 | |
| 20260505151923 | 82 | 0.0 | 0.0 | 0.00 | 0.00 | 0.00 | 53 | 1023.6 | |
| 20260505151421 | 84 | 0.0 | 0.0 | 0.00 | 0.00 | 0.00 | 53 | 1023.7 | |
| 20260505150919 | 81 | 0.0 | 0.0 | 0.00 | 0.00 | 0.00 | 58 | 1023.8 | |
| 20260505150418 | 82 | 0.0 | 0.0 | 0.00 | 0.00 | 0.00 | 56 | 1023.8 | |
| 20260505140357 | 79 | 0.0 | 0.0 | 0.00 | 0.00 | 0.00 | 62 | 1024.3 | |
| 20260505124828 | 77 | 0.0 | 0.0 | 0.00 | 0.02 | 0.00 | 70 | 1024.2 | |
| 20260505124325 | 76 | 0.0 | 0.0 | 0.00 | 0.02 | 0.00 | 72 | 1024.2 | |
| 20260505123823 | 74 | 0.0 | 0.0 | 0.00 | 0.02 | 0.00 | 75 | 1024.1 | |
| 20260505123321 | 74 | 0.0 | 0.0 | 0.00 | 0.02 | 0.00 | 76 | 1024.0 | |
| 20260505122818 | 73 | 0.0 | 0.0 | 0.00 | 0.02 | 0.00 | 75 | 1024.0 | |
| 20260505122316 | 73 | 0.0 | 0.0 | 0.00 | 0.02 | 0.00 | 76 | 1023.9 | |
| 20260505121814 | 74 | 0.0 | 0.0 | 0.00 | 0.02 | 0.00 | 75 | 1023.9 | |
| 20260505121311 | 74 | 0.0 | 0.0 | 0.00 | 0.02 | 0.00 | 72 | 1023.9 | |
| 20260505120809 | 75 | 0.0 | 0.0 | 0.00 | 0.02 | 0.00 | 71 | 1023.9 | |
| 20260505120307 | 74 | 0.0 | 0.0 | 0.00 | 0.02 | 0.00 | 72 | 1023.9 | |
| 20260505115805 | 73 | 0.0 | 0.0 | 0.00 | 0.02 | 0.00 | 74 | 1023.8 | |
| 20260505115305 | 73 | 0.0 | 0.0 | 0.00 | 0.02 | 0.00 | 74 | 1023.8 | |
| 20260505114801 | 73 | 0.0 | 0.0 | 0.00 | 0.02 | 0.00 | 73 | 1023.8 | |
| 20260505114259 | 72 | 0.0 | 0.0 | 0.00 | 0.02 | 0.00 | 81 | 1023.8 | |
| 20260505113757 | 68 | 0.0 | 0.0 | 0.00 | 0.02 | 0.00 | 87 | 1023.7 | |
| 20260505113256 | 69 | 0.0 | 0.0 | 0.00 | 0.02 | 0.00 | 87 | 1023.6 | |
| 20260505112754 | 67 | 0.0 | 0.0 | 0.00 | 0.02 | 0.00 | 91 | 1023.6 | |
| 20260505112252 | 66 | 0.0 | 0.0 | 0.00 | 0.02 | 0.00 | 96 | 1023.5 | |
| 20260505111750 | 65 | 0.0 | 0.0 | 0.00 | 0.02 | 0.00 | 99 | 1023.5 | |
| 20260505111249 | 65 | 0.0 | 0.0 | 0.00 | 0.02 | 0.00 | 99 | 1023.4 | |
| 20260505110747 | 64 | 0.0 | 0.0 | 0.00 | 0.02 | 0.00 | 99 | 1023.4 | |
| 20260505110245 | 65 | 0.0 | 0.0 | 0.00 | 0.02 | 0.00 | 99 | 1023.4 | |
| 20260505101730 | 53 | 0.0 | 0.0 | 0.00 | 0.02 | 0.00 | 99 | 1022.8 | |
| 20260505101228 | 52 | 0.0 | 0.0 | 0.00 | 0.02 | 0.00 | 99 | 1022.8 | |
| 20260505100727 | 52 | 0.0 | 0.0 | 0.00 | 0.02 | 0.00 | 99 | 1022.7 | |
| 20260505100225 | 52 | 0.0 | 0.0 | 0.00 | 0.02 | 0.00 | 99 | 1022.7 | |
| 20260505095723 | 52 | 0.0 | 0.0 | 0.00 | 0.02 | 0.00 | 99 | 1022.6 | |
| 20260505095222 | 52 | 0.0 | 0.0 | 0.00 | 0.02 | 0.00 | 99 | 1022.5 | |
| 20260505094720 | 52 | 0.0 | 0.0 | 0.00 | 0.02 | 0.00 | 99 | 1022.4 | |
| 20260505094219 | 52 | 0.0 | 0.0 | 0.00 | 0.02 | 0.00 | 99 | 1022.3 | |
| 20260505093717 | 52 | 0.0 | 0.0 | 0.00 | 0.02 | 0.00 | 99 | 1022.3 | |
| 20260505093216 | 52 | 0.0 | 0.0 | 0.00 | 0.02 | 0.00 | 99 | 1022.2 | |
| 20260505092714 | 52 | 0.0 | 0.0 | 0.00 | 0.02 | 0.00 | 99 | 1022.2 | |
| 20260505092212 | 52 | 0.0 | 0.0 | 0.00 | 0.02 | 0.00 | 99 | 1022.1 | |
| 20260505091711 | 52 | 0.0 | 0.0 | 0.00 | 0.02 | 0.00 | 99 | 1022.1 | |
| 20260505091209 | 52 | 0.0 | 0.0 | 0.00 | 0.02 | 0.00 | 99 | 1022.0 | |
| 20260505090708 | 52 | 0.0 | 0.0 | 0.00 | 0.02 | 0.00 | 99 | 1021.9 | |
| 20260505090206 | 52 | 0.0 | 0.0 | 0.00 | 0.02 | 0.00 | 99 | 1021.8 | |
| 20260505085704 | 52 | 0.0 | 0.0 | 0.00 | 0.02 | 0.00 | 99 | 1021.8 | |
| 20260505085202 | 52 | 0.0 | 0.0 | 0.00 | 0.02 | 0.00 | 99 | 1021.7 | |
| 20260505084701 | 52 | 0.0 | 0.0 | 0.00 | 0.02 | 0.00 | 99 | 1021.7 | |
| 20260505084159 | 52 | 0.0 | 0.0 | 0.00 | 0.02 | 0.00 | 99 | 1021.7 | |
| 20260505083658 | 52 | 0.0 | 0.0 | 0.00 | 0.02 | 0.00 | 99 | 1021.6 | |
| 20260505083156 | 52 | 0.0 | 0.0 | 0.00 | 0.02 | 0.00 | 99 | 1021.5 | |
| 20260505082654 | 52 | 0.0 | 0.0 | 0.00 | 0.02 | 0.00 | 99 | 1021.5 | |
| 20260505082153 | 52 | 0.0 | 0.0 | 0.00 | 0.02 | 0.00 | 99 | 1021.5 | |
| 20260505081651 | 52 | 0.0 | 0.0 | 0.00 | 0.02 | 0.00 | 99 | 1021.6 | |
| 20260505081149 | 52 | 0.0 | 0.0 | 0.00 | 0.02 | 0.00 | 99 | 1021.5 | |
| 20260505080647 | 52 | 0.0 | 0.0 | 0.00 | 0.02 | 0.00 | 99 | 1021.5 | |
| 20260505080146 | 52 | 0.0 | 0.0 | 0.00 | 0.02 | 0.00 | 99 | 1021.5 | |
| 20260505075644 | 53 | 0.0 | 0.0 | 0.00 | 0.02 | 0.00 | 99 | 1021.4 | |
| 20260505075142 | 53 | 0.0 | 0.0 | 0.00 | 0.02 | 0.00 | 99 | 1021.4 | |
| 20260505074641 | 53 | 0.0 | 0.0 | 0.00 | 0.02 | 0.00 | 99 | 1021.4 | |
| 20260505074139 | 52 | 0.0 | 0.0 | 0.00 | 0.02 | 0.00 | 99 | 1021.4 | |
| 20260505073637 | 53 | 0.0 | 0.0 | 0.00 | 0.02 | 0.00 | 99 | 1021.4 | |
| 20260505073135 | 53 | 0.0 | 0.0 | 0.00 | 0.02 | 0.00 | 99 | 1021.4 | |
| 20260505072634 | 53 | 0.0 | 0.0 | 0.00 | 0.02 | 0.00 | 99 | 1021.4 | |
| 20260505072132 | 53 | 0.0 | 0.0 | 0.00 | 0.02 | 0.00 | 99 | 1021.4 | |
| 20260505071631 | 53 | 0.0 | 0.0 | 0.00 | 0.02 | 0.00 | 99 | 1021.4 | |
| 20260505071129 | 53 | 0.0 | 0.0 | 0.00 | 0.02 | 0.00 | 99 | 1021.5 | |
| 20260505070628 | 53 | 0.0 | 0.0 | 0.00 | 0.02 | 0.00 | 99 | 1021.5 | |
| 20260505070126 | 53 | 0.0 | 0.0 | 0.00 | 0.02 | 0.00 | 99 | 1021.5 | |
| 20260505065625 | 53 | 0.0 | 0.0 | 0.00 | 0.02 | 0.00 | 99 | 1021.5 | |
| 20260505065123 | 53 | 0.0 | 0.0 | 0.00 | 0.02 | 0.00 | 99 | 1021.5 | |
| 20260505064622 | 53 | 0.0 | 0.0 | 0.00 | 0.02 | 0.00 | 99 | 1021.5 | |
| 20260505064121 | 53 | 0.0 | 0.0 | 0.00 | 0.02 | 0.00 | 99 | 1021.6 | |
| 20260505063619 | 53 | 0.0 | 0.0 | 0.00 | 0.02 | 0.00 | 99 | 1021.6 | |
| 20260505063118 | 53 | 0.0 | 0.0 | 0.00 | 0.02 | 0.00 | 99 | 1021.6 | |
| 20260505062616 | 53 | 0.0 | 0.0 | 0.00 | 0.02 | 0.00 | 99 | 1021.6 | |
| 20260505062114 | 53 | 0.0 | 0.0 | 0.00 | 0.02 | 0.00 | 99 | 1021.6 | |
| 20260505061613 | 54 | 0.0 | 0.0 | 0.00 | 0.02 | 0.00 | 99 | 1021.6 | |
| 20260505061111 | 54 | 0.0 | 0.0 | 0.00 | 0.02 | 0.00 | 99 | 1021.6 | |
| 20260505060610 | 54 | 0.0 | 0.0 | 0.00 | 0.02 | 0.00 | 99 | 1021.7 | |
| 20260505060108 | 54 | 0.0 | 0.0 | 0.00 | 0.02 | 0.00 | 99 | 1021.7 | |
| 20260505055606 | 54 | 0.0 | 0.0 | 0.00 | 0.02 | 0.00 | 99 | 1021.7 | |
| 20260505055105 | 54 | 0.0 | 0.0 | 0.00 | 0.02 | 0.00 | 99 | 1021.8 | |
| 20260505054603 | 54 | 0.0 | 0.0 | 0.00 | 0.02 | 0.00 | 99 | 1021.8 | |
| 20260505054101 | 54 | 0.0 | 0.0 | 0.00 | 0.02 | 0.00 | 99 | 1021.8 | |
| 20260505053559 | 55 | 0.0 | 0.0 | 0.00 | 0.02 | 0.00 | 99 | 1021.9 | |
| 20260505053058 | 55 | 0.0 | 0.0 | 0.00 | 0.02 | 0.00 | 99 | 1022.0 | |
| 20260505052557 | 55 | 0.0 | 0.0 | 0.00 | 0.02 | 0.00 | 99 | 1022.0 | |
| 20260505052055 | 55 | 0.0 | 0.0 | 0.00 | 0.02 | 0.00 | 99 | 1022.1 | |
| 20260505051554 | 55 | 0.0 | 0.0 | 0.00 | 0.02 | 0.00 | 99 | 1022.0 | |
| 20260505051052 | 55 | 0.0 | 0.0 | 0.00 | 0.02 | 0.00 | 99 | 1022.2 | |
| 20260505050550 | 55 | 0.0 | 0.0 | 0.00 | 0.02 | 0.00 | 99 | 1022.2 | |
| 20260505041535 | 56 | 0.0 | 0.0 | 0.00 | 0.02 | 0.00 | 99 | 1022.6 | |
| 20260505041033 | 56 | 0.0 | 0.0 | 0.00 | 0.02 | 0.00 | 99 | 1022.7 | |
| 20260505040532 | 56 | 0.0 | 0.0 | 0.00 | 0.02 | 0.00 | 99 | 1022.7 | |
| 20260505040030 | 56 | 0.0 | 0.0 | 0.00 | 0.02 | 0.00 | 99 | 1022.8 | |
| 20260505035529 | 56 | 0.0 | 0.0 | 0.00 | 0.02 | 0.00 | 99 | 1022.8 | |
| 20260505035027 | 57 | 0.0 | 0.0 | 0.00 | 0.02 | 0.00 | 99 | 1022.9 | |
| 20260505034525 | 57 | 0.0 | 0.0 | 0.00 | 0.02 | 0.00 | 99 | 1023.0 | |
| 20260505034024 | 57 | 0.0 | 0.0 | 0.00 | 0.02 | 0.00 | 99 | 1023.0 | |
| 20260505033522 | 57 | 0.0 | 0.0 | 0.00 | 0.02 | 0.00 | 99 | 1023.1 | |
| 20260505033020 | 57 | 0.0 | 0.0 | 0.00 | 0.02 | 0.00 | 99 | 1023.1 | |
| 20260505032518 | 57 | 0.0 | 0.0 | 0.00 | 0.02 | 0.00 | 99 | 1023.0 | |
| 20260505032017 | 57 | 0.0 | 0.0 | 0.00 | 0.02 | 0.00 | 99 | 1023.0 | |
| 20260505031515 | 57 | 0.0 | 0.0 | 0.00 | 0.02 | 0.00 | 99 | 1023.0 | |
| 20260505031014 | 57 | 0.0 | 0.0 | 0.00 | 0.02 | 0.00 | 99 | 1023.0 | |
| 20260505030513 | 57 | 0.0 | 0.0 | 0.00 | 0.02 | 0.00 | 99 | 1023.0 | |
| 20260505030011 | 57 | 0.0 | 0.0 | 0.00 | 0.02 | 0.00 | 99 | 1023.0 | |
| 20260505025509 | 57 | 0.0 | 0.0 | 0.00 | 0.02 | 0.02 | 99 | 1023.0 | |
| 20260505025007 | 57 | 0.0 | 0.0 | 0.00 | 0.02 | 0.02 | 99 | 1023.0 | |
| 20260505024505 | 57 | 0.0 | 0.0 | 0.00 | 0.02 | 0.02 | 99 | 1023.0 | |
| 20260505024004 | 57 | 0.0 | 0.0 | 0.00 | 0.02 | 0.02 | 99 | 1022.9 | |
| 20260505023502 | 57 | 0.0 | 0.0 | 0.00 | 0.02 | 0.02 | 99 | 1022.9 | |
| 20260505023001 | 58 | 0.0 | 0.0 | 0.00 | 0.02 | 0.02 | 99 | 1022.9 | |
| 20260505022459 | 58 | 0.0 | 0.0 | 0.00 | 0.02 | 0.02 | 99 | 1022.9 | |
| 20260505021957 | 57 | 0.0 | 0.0 | 0.00 | 0.02 | 0.02 | 99 | 1022.8 | |
| 20260505021456 | 57 | 0.0 | 0.0 | 0.00 | 0.02 | 0.02 | 99 | 1022.8 | |
| 20260505020954 | 57 | 0.0 | 0.0 | 0.00 | 0.02 | 0.02 | 99 | 1022.8 | |
| 20260505020452 | 58 | 0.0 | 0.0 | 0.00 | 0.02 | 0.02 | 99 | 1022.8 | |
| 20260505015951 | 58 | 0.0 | 0.0 | 0.00 | 0.02 | 0.02 | 99 | 1022.8 | |
| 20260505015449 | 58 | 0.0 | 0.0 | 0.00 | 0.02 | 0.02 | 99 | 1022.8 | |
| 20260505014947 | 58 | 0.0 | 0.0 | 0.00 | 0.02 | 0.02 | 99 | 1022.8 | |
| 20260505014445 | 58 | 0.0 | 0.0 | 0.00 | 0.02 | 0.02 | 99 | 1022.8 | |
| 20260505013944 | 58 | 0.0 | 0.0 | 0.00 | 0.02 | 0.02 | 99 | 1022.8 | |
| 20260505013442 | 58 | 0.0 | 0.0 | 0.00 | 0.02 | 0.02 | 99 | 1022.8 | |
| 20260505012940 | 59 | 0.0 | 0.0 | 0.00 | 0.02 | 0.02 | 99 | 1022.7 | |
| 20260505012439 | 59 | 0.0 | 0.0 | 0.00 | 0.02 | 0.02 | 99 | 1022.7 | |
| 20260505011937 | 59 | 0.0 | 0.0 | 0.00 | 0.02 | 0.02 | 99 | 1022.7 | |
| 20260505011435 | 59 | 0.0 | 0.0 | 0.00 | 0.02 | 0.02 | 99 | 1022.7 | |
| 20260505010933 | 59 | 0.0 | 0.0 | 0.00 | 0.02 | 0.02 | 99 | 1022.6 | |
| 20260505010431 | 59 | 0.0 | 0.0 | 0.00 | 0.02 | 0.02 | 99 | 1022.6 | |
| 20260505005929 | 59 | 0.0 | 0.0 | 0.00 | 0.02 | 0.02 | 99 | 1022.5 | |
| 20260505005427 | 59 | 0.0 | 0.0 | 0.00 | 0.02 | 0.02 | 99 | 1022.4 | |
| 20260505004925 | 59 | 0.0 | 0.0 | 0.00 | 0.02 | 0.02 | 99 | 1022.4 | |
| 20260505004423 | 59 | 0.0 | 0.0 | 0.00 | 0.02 | 0.02 | 99 | 1022.3 | |
| 20260505003920 | 59 | 0.0 | 0.0 | 0.00 | 0.02 | 0.02 | 99 | 1022.2 | |
| 20260505003418 | 59 | 0.0 | 0.0 | 0.00 | 0.02 | 0.02 | 99 | 1022.1 | |
| 20260505002915 | 59 | 0.0 | 0.0 | 0.00 | 0.02 | 0.02 | 99 | 1022.0 | |
| 20260505002414 | 59 | 0.0 | 0.0 | 0.00 | 0.02 | 0.02 | 99 | 1022.0 | |
| 20260505001912 | 59 | 0.0 | 0.0 | 0.00 | 0.02 | 0.02 | 99 | 1021.9 | |
| 20260505001410 | 59 | 0.0 | 0.0 | 0.00 | 0.02 | 0.02 | 99 | 1022.0 | |
| 20260505000907 | 59 | 0.0 | 0.0 | 0.00 | 0.02 | 0.02 | 99 | 1022.0 | |
| 20260505000406 | 59 | 0.0 | 0.0 | 0.00 | 0.02 | 0.02 | 99 | 1022.1 | |
| 20260504235903 | 59 | 0.0 | 0.0 | 0.00 | 0.02 | 0.02 | 99 | 1022.1 | |
| 20260504235400 | 60 | 0.0 | 0.0 | 0.00 | 0.02 | 0.02 | 99 | 1022.1 | |
| 20260504234858 | 59 | 0.0 | 0.0 | 0.00 | 0.02 | 0.02 | 99 | 1022.0 | |
| 20260504234357 | 59 | 0.0 | 0.0 | 0.00 | 0.02 | 0.02 | 99 | 1022.0 | |
| 20260504233855 | 59 | 0.0 | 0.0 | 0.00 | 0.02 | 0.02 | 99 | 1021.9 | |
| 20260504233353 | 59 | 0.0 | 0.0 | 0.00 | 0.02 | 0.02 | 99 | 1021.8 | |
| 20260504232852 | 59 | 0.0 | 0.0 | 0.00 | 0.02 | 0.02 | 99 | 1021.7 | |
| 20260504232350 | 59 | 0.0 | 0.0 | 0.00 | 0.02 | 0.02 | 99 | 1021.7 | |
| 20260504231848 | 59 | 0.0 | 0.0 | 0.00 | 0.02 | 0.02 | 99 | 1021.7 | |
| 20260504231347 | 59 | 0.0 | 0.0 | 0.00 | 0.02 | 0.02 | 99 | 1021.7 | |
| 20260504230845 | 59 | 0.0 | 0.0 | 0.00 | 0.02 | 0.02 | 99 | 1021.7 | |
| 20260504230343 | 59 | 0.0 | 0.0 | 0.00 | 0.02 | 0.02 | 99 | 1021.7 | |
| 20260504225841 | 59 | 0.0 | 0.0 | 0.00 | 0.02 | 0.02 | 99 | 1021.6 | |
| 20260504225339 | 59 | 0.0 | 0.0 | 0.00 | 0.02 | 0.02 | 99 | 1021.6 | |
| 20260504224838 | 59 | 0.0 | 0.0 | 0.00 | 0.02 | 0.02 | 99 | 1021.5 | |
| 20260504224336 | 59 | 0.0 | 0.0 | 0.00 | 0.02 | 0.02 | 99 | 1021.5 | |
| 20260504223834 | 59 | 0.0 | 0.0 | 0.00 | 0.02 | 0.02 | 99 | 1021.5 | |
| 20260504223332 | 59 | 0.0 | 0.0 | 0.00 | 0.02 | 0.02 | 99 | 1021.6 |